This is the latest recevied weather packets stored in our database for station/object IT9CNT. If no packets are shown the sender has not sent any weather packets the latest 10 day(s).
| Time | Temp. | Humidity | Pressure | Rain* | Wind** | Luminosity | Snow |
|---|---|---|---|---|---|---|---|
| 1787690043 | 28.89° C | 82% | 1014.6 hPa | 0 mm | - | - | - |
| 1787689983 | 28.89° C | 82% | 1014.9 hPa | 0 mm | - | - | - |
| 1787689924 | 28.89° C | 82% | 1014.7 hPa | 0 mm | - | - | - |
| 1787689864 | 28.89° C | 82% | 1014.8 hPa | 0 mm | - | - | - |
| 1787689803 | 28.89° C | 82% | 1014.7 hPa | 0 mm | - | - | - |
| 1787689743 | 28.89° C | 82% | 1014.6 hPa | 0 mm | - | - | - |
| 1787689684 | 28.89° C | 82% | 1014.7 hPa | 0 mm | - | - | - |
| 1787689624 | 28.89° C | 82% | 1014.6 hPa | 0 mm | - | - | - |
| 1787689563 | 28.89° C | 82% | 1014.5 hPa | 0 mm | - | - | - |
| 1787689503 | 28.89° C | 82% | 1014.5 hPa | 0 mm | - | - | - |
| 1787689443 | 28.89° C | 83% | 1014.4 hPa | 0 mm | - | - | - |
| 1787689383 | 28.89° C | 83% | 1014.5 hPa | 0 mm | - | - | - |
| 1787689323 | 28.89° C | 83% | 1014.6 hPa | 0 mm | - | - | - |
| 1787689263 | 28.89° C | 83% | 1014.4 hPa | 0 mm | - | - | - |
| 1787689203 | 28.89° C | 83% | 1014.7 hPa | 0.25 mm | - | - | - |
| 1787689143 | 28.89° C | 82% | 1014.7 hPa | 0.25 mm | - | - | - |
| 1787689083 | 28.33° C | 84% | 1014.7 hPa | 1.02 mm | - | - | - |
| 1787689024 | 28.33° C | 84% | 1014.6 hPa | 1.02 mm | - | - | - |
| 1787688963 | 28.33° C | 84% | 1014.4 hPa | 1.27 mm | - | - | - |
| 1787688903 | 28.33° C | 84% | 1014.4 hPa | 1.52 mm | - | - | - |
| 1787688843 | 28.33° C | 84% | 1014.7 hPa | 1.78 mm | - | - | - |
| 1787688783 | 28.33° C | 84% | 1014.3 hPa | 2.03 mm | - | - | - |
| 1787688723 | 28.33° C | 84% | 1014.6 hPa | 2.79 mm | - | - | - |
| 1787688603 | 28.89° C | 83% | 1014.5 hPa | 3.05 mm | - | - | - |
| 1787688543 | 28.89° C | 83% | 1014.5 hPa | 3.3 mm | - | - | - |
* Rain latest hour (hover to see other rain measurements)
** Current wind speed in m/s (hover to see current wind gust speed)